When you browse on this site, cookies collect data to enhance your experience and personalize the content and advertising you see.
Visit our Privacy Policy to learn more. By continuing to use the site, you agree to this use of cookies and data.
  • Em Portugal
  • Lista de países
  • Para 7 dias
  • Temperatura da água
  • Mapas de satélite
  • Mapa do tempo
  • Widgets de tempo
  • user-avatar
    Iniciar Sessão

    Previsão horária em Pomorie

    Hoje, 25 Maio, Sábado

    Tempo Temperatura Precipitação Vento Pressão Humidade
    00:00 +14°C° 0 mm 3 m/s 757 mmHg 88%
    01:00 +13°C° 0 mm 4 m/s 757 mmHg 88%
    02:00 +13°C° 0 mm 3 m/s 757 mmHg 88%
    03:00 +13°C° 0 mm 4 m/s 757 mmHg 88%
    04:00 +13°C° 0 mm 4 m/s 757 mmHg 88%
    05:00 +12°C° 0 mm 4 m/s 757 mmHg 88%
    06:00 +14°C° 0 mm 4 m/s 758 mmHg 82%
    07:00 +17°C° 0 mm 4 m/s 758 mmHg 77%
    08:00 +19°C° 0 mm 4 m/s 758 mmHg 70%
    09:00 +20°C° 0 mm 4 m/s 758 mmHg 67%
    10:00 +22°C° 0 mm 4 m/s 758 mmHg 63%
    11:00 +24°C° 0 mm 3 m/s 758 mmHg 59%
    12:00 +24°C° 0.3 mm 3 m/s 758 mmHg 59%
    13:00 +25°C° 0.3 mm 3 m/s 758 mmHg 58%
    14:00 +25°C° 0.3 mm 2 m/s 758 mmHg 58%
    15:00 +25°C° 0.3 mm 2 m/s 758 mmHg 60%
    16:00 +25°C° 0.3 mm 2 m/s 758 mmHg 62%
    17:00 +24°C° 0.3 mm 2 m/s 758 mmHg 64%
    18:00 +23°C° 0.1 mm 2 m/s 758 mmHg 69%
    19:00 +20°C° 0.1 mm 2 m/s 758 mmHg 74%
    20:00 +19°C° 0.1 mm 2 m/s 758 mmHg 79%
    21:00 +18°C° 0 mm 2 m/s 759 mmHg 82%
    22:00 +17°C° 0 mm 2 m/s 759 mmHg 84%
    23:00 +17°C° 0 mm 3 m/s 760 mmHg 86%

    Amanhã, 26 Maio, Domingo

    Tempo Temperatura Precipitação Vento Pressão Humidade
    00:00 +17°C° 0 mm 3 m/s 760 mmHg 86%
    01:00 +16°C° 0 mm 3 m/s 760 mmHg 86%
    02:00 +16°C° 0 mm 3 m/s 760 mmHg 86%
    03:00 +16°C° 0 mm 3 m/s 760 mmHg 86%
    04:00 +16°C° 0 mm 3 m/s 760 mmHg 86%
    05:00 +16°C° 0 mm 3 m/s 761 mmHg 86%
    06:00 +17°C° 0 mm 3 m/s 761 mmHg 80%
    07:00 +19°C° 0 mm 3 m/s 761 mmHg 75%
    08:00 +21°C° 0 mm 3 m/s 761 mmHg 69%
    09:00 +24°C° 0 mm 2 m/s 761 mmHg 64%
    10:00 +26°C° 0 mm 1 m/s 762 mmHg 58%
    11:00 +27°C° 0 mm 1 m/s 762 mmHg 53%
    12:00 +28°C° 0 mm 1 m/s 762 mmHg 52%
    13:00 +28°C° 0 mm 2 m/s 762 mmHg 51%
    14:00 +28°C° 0 mm 3 m/s 762 mmHg 50%
    15:00 +27°C° 0 mm 3 m/s 761 mmHg 53%
    16:00 +27°C° 0 mm 3 m/s 761 mmHg 57%
    17:00 +26°C° 0 mm 4 m/s 761 mmHg 60%
    18:00 +23°C° 0 mm 4 m/s 761 mmHg 67%
    19:00 +21°C° 0 mm 3 m/s 761 mmHg 73%
    20:00 +19°C° 0 mm 3 m/s 761 mmHg 79%
    21:00 +19°C° 0 mm 3 m/s 762 mmHg 81%
    22:00 +19°C° 0 mm 2 m/s 762 mmHg 83%
    23:00 +18°C° 0 mm 2 m/s 762 mmHg 84%

    Depois de amanhã, 27 Maio, Segunda-feira

    Tempo Temperatura Precipitação Vento Pressão Humidade
    00:00 +19°C° 0 mm 1 m/s 762 mmHg 85%
    01:00 +19°C° 0 mm 1 m/s 762 mmHg 86%
    02:00 +18°C° 0 mm 1 m/s 762 mmHg 87%
    03:00 +18°C° 0 mm 1 m/s 762 mmHg 88%
    04:00 +16°C° 0 mm 0 m/s 762 mmHg 88%
    05:00 +16°C° 0 mm 0 m/s 762 mmHg 88%
    06:00 +18°C° 0 mm 0 m/s 762 mmHg 82%
    07:00 +22°C° 0 mm 1 m/s 762 mmHg 75%
    08:00 +24°C° 0 mm 1 m/s 762 mmHg 69%
    09:00 +25°C° 0 mm 2 m/s 762 mmHg 64%
    10:00 +26°C° 0 mm 3 m/s 762 mmHg 60%
    11:00 +27°C° 0 mm 4 m/s 762 mmHg 55%
    12:00 +26°C° 0 mm 4 m/s 762 mmHg 55%
    13:00 +26°C° 0 mm 4 m/s 762 mmHg 55%
    14:00 +26°C° 0 mm 5 m/s 762 mmHg 55%
    15:00 +26°C° 0 mm 5 m/s 761 mmHg 59%
    16:00 +25°C° 0 mm 5 m/s 761 mmHg 62%
    17:00 +23°C° 0 mm 4 m/s 761 mmHg 65%
    18:00 +21°C° 0 mm 4 m/s 761 mmHg 74%
    19:00 +19°C° 0 mm 3 m/s 761 mmHg 82%
    20:00 +18°C° 0 mm 3 m/s 761 mmHg 90%
    21:00 +17°C° 0 mm 3 m/s 761 mmHg 91%
    22:00 +17°C° 0 mm 2 m/s 761 mmHg 92%
    23:00 +16°C° 0 mm 2 m/s 761 mmHg 93%

    28 Maio, Terça-feira

    Tempo Temperatura Precipitação Vento Pressão Humidade
    00:00 +16°C° 0 mm 2 m/s 761 mmHg 93%
    01:00 +16°C° 0 mm 2 m/s 761 mmHg 93%
    02:00 +16°C° 0 mm 2 m/s 760 mmHg 93%
    03:00 +16°C° 0 mm 2 m/s 760 mmHg 93%
    04:00 +16°C° 0 mm 2 m/s 760 mmHg 93%
    05:00 +15°C° 0 mm 2 m/s 759 mmHg 93%
    06:00 +17°C° 0 mm 2 m/s 759 mmHg 87%
    07:00 +19°C° 0 mm 2 m/s 759 mmHg 80%
    08:00 +21°C° 0 mm 2 m/s 759 mmHg 73%
    09:00 +24°C° 0 mm 2 m/s 759 mmHg 68%
    10:00 +25°C° 0 mm 3 m/s 759 mmHg 63%
    11:00 +27°C° 0 mm 3 m/s 758 mmHg 58%
    12:00 +27°C° 0 mm 3 m/s 758 mmHg 57%
    13:00 +28°C° 0 mm 4 m/s 757 mmHg 57%
    14:00 +28°C° 0 mm 4 m/s 757 mmHg 56%
    15:00 +28°C° 0 mm 4 m/s 757 mmHg 59%
    16:00 +27°C° 0 mm 4 m/s 756 mmHg 62%
    17:00 +26°C° 0 mm 4 m/s 756 mmHg 65%
    18:00 +25°C° 0 mm 4 m/s 756 mmHg 71%
    19:00 +22°C° 0 mm 3 m/s 756 mmHg 76%
    20:00 +21°C° 0 mm 3 m/s 756 mmHg 82%
    21:00 +20°C° 0 mm 3 m/s 756 mmHg 77%
    22:00 +20°C° 0 mm 3 m/s 756 mmHg 72%
    23:00 +20°C° 0 mm 4 m/s 757 mmHg 68%

    29 Maio, Quarta-feira

    Tempo Temperatura Precipitação Vento Pressão Humidade
    00:00 +19°C° 0 mm 4 m/s 757 mmHg 69%
    01:00 +19°C° 0 mm 4 m/s 757 mmHg 70%
    02:00 +18°C° 0 mm 4 m/s 756 mmHg 71%
    03:00 +18°C° 0 mm 4 m/s 757 mmHg 75%
    04:00 +18°C° 0 mm 4 m/s 757 mmHg 78%
    05:00 +17°C° 0 mm 4 m/s 757 mmHg 82%
    06:00 +19°C° 0 mm 3 m/s 757 mmHg 77%
    07:00 +21°C° 0 mm 3 m/s 757 mmHg 71%
    08:00 +24°C° 0 mm 3 m/s 757 mmHg 66%
    09:00 +26°C° 0 mm 3 m/s 757 mmHg 61%
    10:00 +27°C° 0 mm 3 m/s 757 mmHg 56%
    11:00 +29°C° 0 mm 3 m/s 758 mmHg 51%
    12:00 +30°C° 0 mm 3 m/s 757 mmHg 50%
    13:00 +30°C° 0 mm 3 m/s 757 mmHg 48%
    14:00 +31°C° 0 mm 3 m/s 757 mmHg 47%
    15:00 +30°C° 0 mm 3 m/s 757 mmHg 49%
    16:00 +30°C° 0 mm 3 m/s 757 mmHg 51%
    17:00 +30°C° 0 mm 3 m/s 757 mmHg 53%
    18:00 +28°C° 0 mm 4 m/s 757 mmHg 58%
    19:00 +26°C° 0 mm 4 m/s 758 mmHg 63%
    20:00 +23°C° 0 mm 4 m/s 758 mmHg 68%
    21:00 +22°C° 0 mm 3 m/s 758 mmHg 69%
    22:00 +21°C° 0 mm 3 m/s 758 mmHg 71%
    23:00 +20°C° 0 mm 3 m/s 759 mmHg 73%

    30 Maio, Quinta-feira

    Tempo Temperatura Precipitação Vento Pressão Humidade
    00:00 +20°C° 0 mm 2 m/s 759 mmHg 75%
    01:00 +19°C° 0 mm 2 m/s 759 mmHg 77%
    02:00 +19°C° 0 mm 2 m/s 759 mmHg 79%
    03:00 +19°C° 0 mm 2 m/s 759 mmHg 80%
    04:00 +19°C° 0 mm 2 m/s 759 mmHg 82%
    05:00 +18°C° 0 mm 2 m/s 760 mmHg 84%
    06:00 +20°C° 0 mm 2 m/s 760 mmHg 78%
    07:00 +23°C° 0 mm 2 m/s 760 mmHg 72%
    08:00 +25°C° 0 mm 2 m/s 760 mmHg 67%
    09:00 +27°C° 0.1 mm 2 m/s 760 mmHg 64%
    10:00 +28°C° 0.1 mm 2 m/s 760 mmHg 61%
    11:00 +29°C° 0.1 mm 2 m/s 760 mmHg 57%
    12:00 +29°C° 0.2 mm 3 m/s 760 mmHg 57%
    13:00 +29°C° 0.2 mm 3 m/s 760 mmHg 57%
    14:00 +30°C° 0.2 mm 3 m/s 760 mmHg 56%
    15:00 +29°C° 0.1 mm 3 m/s 760 mmHg 58%
    16:00 +28°C° 0.1 mm 3 m/s 760 mmHg 60%
    17:00 +28°C° 0.1 mm 2 m/s 760 mmHg 62%
    18:00 +26°C° 0 mm 2 m/s 760 mmHg 67%
    19:00 +24°C° 0 mm 1 m/s 760 mmHg 72%
    20:00 +23°C° 0 mm 1 m/s 760 mmHg 77%
    21:00 +20°C° 0 mm 0 m/s 760 mmHg 79%
    22:00 +19°C° 0 mm 0 m/s 760 mmHg 81%
    23:00 +19°C° 0 mm 0 m/s 760 mmHg 83%
    Mostrar mais